• In Hungary
  • List of Countries
  • For 7 days
  • Water Temperature
  • Satellite Maps
  • Weather Map
  • News
  • Weather Widgets
  • user-avatar
    Login

    Hourly Weather Stankivtsi

    Today, 24 October, Wednesday

    Time Temperature Precipitation Wind Pressure Humidity
    00:00 +6°C° 0.5 mm 8 mps 727 mmHg 77%
    01:00 +6°C° 0.5 mm 8 mps 726 mmHg 78%
    02:00 +6°C° 0.5 mm 9 mps 725 mmHg 79%
    03:00 +6°C° 0.8 mm 8 mps 724 mmHg 80%
    04:00 +6°C° 0.8 mm 8 mps 723 mmHg 80%
    05:00 +6°C° 0.8 mm 8 mps 723 mmHg 81%
    06:00 +6°C° 0.7 mm 9 mps 722 mmHg 80%
    07:00 +5°C° 0.7 mm 9 mps 722 mmHg 79%
    08:00 +5°C° 0.7 mm 9 mps 722 mmHg 78%
    09:00 +5°C° 0.6 mm 9 mps 722 mmHg 77%
    10:00 +5°C° 0.6 mm 9 mps 723 mmHg 76%
    11:00 +3°C° 0.6 mm 9 mps 723 mmHg 75%
    12:00 +3°C° 0.5 mm 9 mps 723 mmHg 72%
    13:00 +3°C° 0.5 mm 10 mps 724 mmHg 69%
    14:00 +3°C° 0.5 mm 10 mps 724 mmHg 65%
    15:00 +3°C° 0.2 mm 9 mps 725 mmHg 66%
    16:00 +2°C° 0.2 mm 9 mps 726 mmHg 67%
    17:00 +2°C° 0.2 mm 8 mps 726 mmHg 68%
    18:00 +2°C° 0.1 mm 9 mps 727 mmHg 68%
    19:00 +1°C° 0.1 mm 9 mps 727 mmHg 67%
    20:00 +1°C° 0.1 mm 9 mps 728 mmHg 67%
    21:00 +1°C° 0.1 mm 10 mps 728 mmHg 68%
    22:00 +1°C° 0.1 mm 10 mps 729 mmHg 69%
    23:00 +1°C° 0.1 mm 10 mps 729 mmHg 70%

    Tomorrow, 25 October, Thursday

    Time Temperature Precipitation Wind Pressure Humidity
    00:00 +1°C° 0.1 mm 10 mps 730 mmHg 71%
    01:00 +1°C° 0.1 mm 9 mps 730 mmHg 72%
    02:00 +1°C° 0.1 mm 9 mps 731 mmHg 73%
    03:00 +1°C° 0.1 mm 9 mps 731 mmHg 74%
    04:00 +1°C° 0.1 mm 8 mps 732 mmHg 75%
    05:00 +1°C° 0.1 mm 8 mps 732 mmHg 75%
    06:00 0°C° 0 mm 8 mps 732 mmHg 76%
    07:00 0°C° 0 mm 7 mps 733 mmHg 77%
    08:00 0°C° 0 mm 7 mps 733 mmHg 77%
    09:00 +2°C° 0 mm 7 mps 733 mmHg 73%
    10:00 +3°C° 0 mm 7 mps 733 mmHg 69%
    11:00 +4°C° 0 mm 7 mps 733 mmHg 64%
    12:00 +4°C° 0.3 mm 7 mps 733 mmHg 66%
    13:00 +4°C° 0.3 mm 7 mps 732 mmHg 67%
    14:00 +4°C° 0.3 mm 7 mps 731 mmHg 69%
    15:00 +4°C° 1 mm 7 mps 731 mmHg 73%
    16:00 +4°C° 1 mm 7 mps 730 mmHg 77%
    17:00 +4°C° 1 mm 7 mps 729 mmHg 81%
    18:00 +5°C° 0.6 mm 8 mps 729 mmHg 82%
    19:00 +6°C° 0.6 mm 8 mps 729 mmHg 83%
    20:00 +6°C° 0.6 mm 9 mps 729 mmHg 84%
    21:00 +6°C° 0.6 mm 8 mps 729 mmHg 83%
    22:00 +6°C° 0.6 mm 7 mps 730 mmHg 83%
    23:00 +6°C° 0.6 mm 7 mps 730 mmHg 82%

    Day after tomorrow, 26 October, Friday

    Time Temperature Precipitation Wind Pressure Humidity
    00:00 +5°C° 0.1 mm 7 mps 731 mmHg 83%
    01:00 +4°C° 0.1 mm 6 mps 731 mmHg 84%
    02:00 +4°C° 0.1 mm 6 mps 732 mmHg 84%
    03:00 +3°C° 0 mm 6 mps 732 mmHg 85%
    04:00 +3°C° 0 mm 6 mps 732 mmHg 86%
    05:00 +3°C° 0 mm 6 mps 732 mmHg 86%
    06:00 +3°C° 0 mm 5 mps 733 mmHg 86%
    07:00 +3°C° 0 mm 5 mps 733 mmHg 86%
    08:00 +3°C° 0 mm 5 mps 734 mmHg 86%
    09:00 +4°C° 0 mm 6 mps 734 mmHg 80%
    10:00 +7°C° 0 mm 6 mps 734 mmHg 74%
    11:00 +8°C° 0 mm 7 mps 734 mmHg 69%
    12:00 +8°C° 0 mm 6 mps 734 mmHg 68%
    13:00 +9°C° 0 mm 6 mps 734 mmHg 67%
    14:00 +9°C° 0 mm 6 mps 734 mmHg 67%
    15:00 +9°C° 0 mm 5 mps 733 mmHg 70%
    16:00 +9°C° 0 mm 3 mps 733 mmHg 74%
    17:00 +9°C° 0 mm 2 mps 733 mmHg 78%
    18:00 +9°C° 0 mm 3 mps 733 mmHg 79%
    19:00 +8°C° 0 mm 3 mps 733 mmHg 80%
    20:00 +7°C° 0 mm 4 mps 733 mmHg 82%
    21:00 +7°C° 0 mm 4 mps 732 mmHg 82%
    22:00 +7°C° 0 mm 4 mps 732 mmHg 83%
    23:00 +7°C° 0 mm 4 mps 732 mmHg 83%

    27 October, Saturday

    Time Temperature Precipitation Wind Pressure Humidity
    00:00 +8°C° 0 mm 4 mps 732 mmHg 83%
    01:00 +8°C° 0 mm 5 mps 731 mmHg 83%
    02:00 +8°C° 0 mm 5 mps 731 mmHg 83%
    03:00 +8°C° 0 mm 5 mps 731 mmHg 83%
    04:00 +8°C° 0 mm 5 mps 731 mmHg 83%
    05:00 +8°C° 0 mm 4 mps 731 mmHg 83%
    06:00 +8°C° 0 mm 4 mps 731 mmHg 83%
    07:00 +8°C° 0 mm 4 mps 731 mmHg 84%
    08:00 +9°C° 0 mm 3 mps 732 mmHg 84%
    09:00 +10°C° 0 mm 4 mps 732 mmHg 79%
    10:00 +10°C° 0 mm 4 mps 733 mmHg 74%
    11:00 +10°C° 0 mm 5 mps 733 mmHg 70%
    12:00 +10°C° 0.1 mm 4 mps 733 mmHg 69%
    13:00 +10°C° 0.1 mm 4 mps 733 mmHg 69%
    14:00 +10°C° 0.1 mm 3 mps 733 mmHg 68%
    15:00 +9°C° 0.2 mm 3 mps 734 mmHg 69%
    16:00 +9°C° 0.2 mm 2 mps 734 mmHg 70%
    17:00 +8°C° 0.2 mm 2 mps 734 mmHg 72%
    18:00 +9°C° 0.3 mm 1 mps 734 mmHg 73%
    19:00 +8°C° 0.3 mm 1 mps 735 mmHg 74%
    20:00 +8°C° 0.3 mm 1 mps 735 mmHg 76%
    21:00 +7°C° 0.7 mm 1 mps 735 mmHg 78%
    22:00 +7°C° 0.7 mm 1 mps 736 mmHg 80%
    23:00 +7°C° 0.7 mm 1 mps 736 mmHg 82%

    28 October, Sunday

    Time Temperature Precipitation Wind Pressure Humidity
    00:00 +7°C° 1.3 mm 1 mps 736 mmHg 84%
    01:00 +6°C° 1.3 mm 1 mps 736 mmHg 86%
    02:00 +6°C° 1.3 mm 1 mps 736 mmHg 88%
    03:00 +6°C° 0.6 mm 1 mps 736 mmHg 88%
    04:00 +5°C° 0.6 mm 2 mps 737 mmHg 88%
    05:00 +5°C° 0.6 mm 2 mps 737 mmHg 89%
    06:00 +4°C° 0.3 mm 3 mps 737 mmHg 88%
    07:00 +4°C° 0.3 mm 3 mps 737 mmHg 87%
    08:00 +4°C° 0.3 mm 4 mps 737 mmHg 87%
    09:00 +5°C° 0.2 mm 4 mps 737 mmHg 86%
    10:00 +5°C° 0.2 mm 4 mps 737 mmHg 86%
    11:00 +5°C° 0.2 mm 4 mps 737 mmHg 85%
    12:00 +6°C° 0.1 mm 4 mps 737 mmHg 85%
    13:00 +7°C° 0.1 mm 4 mps 737 mmHg 85%
    14:00 +7°C° 0.1 mm 4 mps 736 mmHg 84%
    15:00 +7°C° 0.2 mm 4 mps 736 mmHg 86%
    16:00 +8°C° 0.2 mm 4 mps 736 mmHg 87%
    17:00 +8°C° 0.2 mm 4 mps 736 mmHg 88%
    18:00 +8°C° 0.1 mm 4 mps 735 mmHg 89%
    19:00 +8°C° 0.1 mm 4 mps 735 mmHg 91%
    20:00 +9°C° 0.1 mm 3 mps 735 mmHg 92%
    21:00 +9°C° 0 mm 3 mps 735 mmHg 92%
    22:00 +9°C° 0 mm 3 mps 735 mmHg 92%
    23:00 +9°C° 0 mm 2 mps 735 mmHg 91%

    29 October, Monday

    Time Temperature Precipitation Wind Pressure Humidity
    00:00 +9°C° 0 mm 2 mps 735 mmHg 90%
    01:00 +10°C° 0 mm 2 mps 735 mmHg 89%
    02:00 +10°C° 0 mm 2 mps 734 mmHg 88%
    03:00 +10°C° 0 mm 2 mps 734 mmHg 87%
    04:00 +10°C° 0 mm 2 mps 734 mmHg 86%
    05:00 +10°C° 0 mm 2 mps 733 mmHg 85%
    06:00 +10°C° 0 mm 3 mps 733 mmHg 83%
    07:00 +10°C° 0 mm 3 mps 733 mmHg 82%
    08:00 +11°C° 0 mm 3 mps 733 mmHg 81%
    09:00 +12°C° 0 mm 3 mps 733 mmHg 75%
    10:00 +14°C° 0 mm 3 mps 733 mmHg 69%
    11:00 +17°C° 0 mm 3 mps 732 mmHg 63%
    12:00 +18°C° 0 mm 3 mps 732 mmHg 62%
    13:00 +19°C° 0 mm 3 mps 732 mmHg 61%
    14:00 +19°C° 0 mm 3 mps 731 mmHg 59%
    15:00 +18°C° 0 mm 3 mps 731 mmHg 65%
    16:00 +16°C° 0 mm 3 mps 731 mmHg 71%
    17:00 +14°C° 0 mm 3 mps 731 mmHg 76%
    18:00 +14°C° 0 mm 3 mps 731 mmHg 76%
    19:00 +15°C° 0 mm 2 mps 731 mmHg 76%
    20:00 +15°C° 0 mm 2 mps 731 mmHg 75%
    21:00 +15°C° 0 mm 2 mps 731 mmHg 76%
    22:00 +15°C° 0 mm 2 mps 732 mmHg 76%
    23:00 +14°C° 0 mm 2 mps 732 mmHg 76%

    30 October, Tuesday

    Time Temperature Precipitation Wind Pressure Humidity
    00:00 +14°C° 0 mm 2 mps 732 mmHg 78%
    01:00 +14°C° 0 mm 2 mps 732 mmHg 79%
    02:00 +14°C° 0 mm 2 mps 732 mmHg 80%
    03:00 +14°C° 0 mm 2 mps 732 mmHg 81%
    04:00 +12°C° 0 mm 3 mps 732 mmHg 82%
    05:00 +12°C° 0 mm 3 mps 732 mmHg 83%
    06:00 +12°C° 0 mm 3 mps 732 mmHg 82%
    07:00 +12°C° 0 mm 3 mps 732 mmHg 81%
    08:00 +12°C° 0 mm 3 mps 732 mmHg 80%
    09:00 +14°C° 0 mm 4 mps 732 mmHg 74%
    10:00 +15°C° 0 mm 4 mps 732 mmHg 69%
    11:00 +17°C° 0 mm 5 mps 732 mmHg 63%
    12:00 +17°C° 0 mm 5 mps 732 mmHg 63%
    13:00 +19°C° 0 mm 5 mps 732 mmHg 63%
    14:00 +19°C° 0 mm 4 mps 731 mmHg 63%
    15:00 +17°C° 0 mm 5 mps 731 mmHg 66%
    16:00 +16°C° 0 mm 5 mps 730 mmHg 68%
    17:00 +16°C° 0 mm 5 mps 730 mmHg 71%
    18:00 +15°C° 0 mm 5 mps 729 mmHg 72%
    19:00 +15°C° 0 mm 4 mps 729 mmHg 74%
    20:00 +14°C° 0 mm 4 mps 728 mmHg 76%
    21:00 +14°C° 0 mm 4 mps 728 mmHg 78%
    22:00 +14°C° 0 mm 4 mps 728 mmHg 80%
    23:00 +14°C° 0 mm 4 mps 727 mmHg 81%
    Show more